005 
ASUS46 KSEW 201310
RWRWA 

WASHINGTON REGIONAL WEATHER ROUNDUP
NATIONAL WEATHER SERVICE SEATTLE WA
500 AM PST WED FEB 20 2019

NOTE:"FAIR" INDICATES FEW OR NO CLOUDS BELOW 12,000 FEET WITH NO 
SIGNIFICANT WEATHER AND/OR OBSTRUCTIONS TO VISIBILITY.

WAZ507-509-555>559-201400-
SEATTLE, TACOMA, EVERETT, AND VICINITY
  
CITY           SKY/WX    TMP DP  RH WIND       PRES   REMARKS
EVERETT        CLOUDY    35  34  96 NW5       29.82F                  
BOEING FIELD   CLOUDY    38  34  85 CALM      29.84F                  
RENTON         CLOUDY    38  35  89 N3        29.84F                  
SEATAC AIRPORT CLOUDY    37  34  89 NE6       29.83F                  
JBLM-MCCHORD   LGT RAIN  37  37 100 CALM      29.84S                  
PUYALLUP       DRIZZLE   34  34 100 CALM      29.83S                  
BREMERTON      MIX PCPN  35  35 100 NE6       29.83F                  
JBLM-FT LEWIS  RAIN      37  37 100 CALM      29.83S FOG              
TACOMA NARROWS CLOUDY    37  34  89 N7        29.83F                  
$$
 
WAZ001-503-506-510-514-515-201400-
NORTH INTERIOR
  
CITY           SKY/WX    TMP DP  RH WIND       PRES   REMARKS
BELLINGHAM     FOG       32  30  92 MISG      29.83S VSB 3/4          
FRIDAY HARBOR  MOCLDY    37  31  78 VRB3      29.84F                  
EASTSOUND      CLOUDY    39  36  87 VRB6      29.83S                  
PORT ANGELES   CLOUDY    34  32  92 SE7       29.84F                  
EDIZ HOOK      CLOUDY    36  35  95 S9        29.85F                  
PORT TOWNSEND  CLOUDY    37  34  87 CALM      29.83F                  
NAS WHIDBEY    MOCLDY    40  34  79 N3        29.87F                  
ARLINGTON      CLOUDY    34  33  96 NW6       29.84F                  
BURLINGTON     MOCLDY    36  36 100 CALM      29.84S                  
$$
 
WAZ020-022-039-040-504-511-512-201400-
SOUTHWEST INTERIOR
  
CITY           SKY/WX    TMP DP  RH WIND       PRES   REMARKS
SHELTON        CLOUDY    35  33  92 CALM      29.82S                  
OLYMPIA        LGT RAIN  33  33 100 CALM      29.84S FOG              
CHEHALIS       CLOUDY    34  34 100 CALM      29.84S                  
KELSO          CLOUDY    38  37  97 E3        29.87F                  
VANCOUVER      LGT RAIN  37  35  92 CALM      29.88F                  
SCAPPOOSE, OR  MOCLDY    36  34  92 CALM      29.87F                  
PORTLAND, OR   CLOUDY    39  39 100 CALM      29.89S                  
$$
 
WAZ021-516-517-201400-
WASHINGTON COAST
  
CITY           SKY/WX    TMP DP  RH WIND       PRES   REMARKS
FORKS          MOCLDY    30  29  96 CALM      29.84S FOG              
HOQUIAM        PTCLDY    40  36  86 W6        29.84S                  
ASTORIA, OR    RAIN      40  37  89 W7        29.86F FOG              
$$
 
WAZ019-023-024-040-567>569-201400-
CASCADE MOUNTAINS AND COLUMBIA GORGE
  
CITY           SKY/WX    TMP DP  RH WIND       PRES   REMARKS
STAMPEDE PASS  FOG       26  23  88 VRB6      29.64F VSB 3/4          
TROUTDALE, OR  LGT RAIN  39  35  86 SW9       29.88F                  
HOOD RIVER, OR MOSUNNY   36  32  87 NW5       29.80S                  
THE DALLES, OR MOCLDY    38  31  76 NW13      29.79S                  
$$

WAZ026-027-041>044-520-521-201400-
EAST SLOPES
  
CITY           SKY/WX    TMP DP  RH WIND       PRES   REMARKS
OMAK           CLOUDY    21  19  92 N14       29.80F WCI   8          
WENATCHEE      CLOUDY    19  14  81 NW5       29.80S                  
ELLENSBURG     CLOUDY    23  16  74 E8        29.72S                  
YAKIMA         PTCLDY    14  10  84 CALM      29.77S                  
SUNNYSIDE ARPT FOG       23  23  99 CALM      29.79  VSB 1            
YAKIMA TC      PTSUNNY   18  15  91 CALM      29.72F                  
$$

WAZ028-034-035-201400-
COLUMBIA BASIN
  
CITY           SKY/WX    TMP DP  RH WIND       PRES   REMARKS
EPHRATA        CLOUDY    25  19  78 NW15      29.76F WCI  13          
MOSES LAKE     CLOUDY    27  20  75 N10       29.77S WCI  17          
PASCO          CLOUDY    24  18  77 NW10      29.83S WCI  14          
RICHLAND ARPT  CLOUDY    26  21  79 NW8       29.83S                  
HERMISTON, OR  CLOUDY    29  23  78 NE10      29.78R WCI  20          
$$

WAZ036>038-201400-
NORTHEAST WASHINGTON
  
CITY           SKY/WX    TMP DP  RH WIND       PRES   REMARKS
SPOKANE GEIGER LGT SNOW  21  18  88 NE7       29.69S FOG              
SPOKANE FELTS  CLOUDY    24  20  84 CALM      29.72S                  
FAIRCHILD AFB  NOT AVBL                                               
COEURDALENE,ID FLURRIES  21  19  92 NE10      29.70F WCI  10          
DEER PARK      CLOUDY    21  17  84 NE7       29.71F                  
$$

WAZ029>033-201400-
SOUTHEAST WASHINGTON
  
CITY           SKY/WX    TMP DP  RH WIND       PRES   REMARKS
PULLMAN        LGT SNOW  25  23  92 E9        29.66F FOG              
LEWISTON, ID   LGT SNOW  27  23  85 CALM      29.72S FOG              
WALLA WALLA    SNOW      25  21  85 S10       29.76R VSB 1/2 WCI  15  
PENDLETON, OR  LGT SNOW  26  23  88 N17       29.72R FOG     WCI  13  
$$